Waarnemingen

Advertentie
Mijn weer
Wick Airport (AWS), Groot Brittannië (3075): temperatuur & dauwpunt: 26.03.2020 19:00:00 - 01.04.2020 19:00:00 (BST)Wick Airport (AWS), Groot Brittannië (3075): temperatuur -20cm: 26.03.2020 19:00:00 - 01.04.2020 19:00:00 (BST)Wick Airport (AWS), Groot Brittannië (3075): windsnelheid & windstoten: 26.03.2020 19:00:00 - 01.04.2020 19:00:00 (BST)Wick Airport (AWS), Groot Brittannië (3075): windrichting: 26.03.2020 19:00:00 - 01.04.2020 19:00:00 (BST)Wick Airport (AWS), Groot Brittannië (3075): luchtdruk: 26.03.2020 19:00:00 - 01.04.2020 19:00:00 (BST)Wick Airport (AWS), Groot Brittannië (3075): zicht: 26.03.2020 19:00:00 - 01.04.2020 19:00:00 (BST)Wick Airport (AWS), Groot Brittannië (3075): neerslag: 26.03.2020 19:00:00 - 01.04.2020 19:00:00 (BST)
Datum & Tijd tt [°C] td [°C] tt -20cm [°C] ff [km/u] ff [kn] fx [km/u] fx [kn] dd ppp [hPa] vv [km] rr [mm]
01.04.2020 19:00:00 7,1 1,7 - 37 20 57 31 W 1012,2 19 0,0
01.04.2020 18:00:00 7,9 2,0 - 42 23 61 33 W 1012,5 14 0,0
01.04.2020 17:00:00 8,4 2,7 - 42 23 65 35 W 1012,7 18 0,0
01.04.2020 16:00:00 9,0 3,9 - 42 23 61 33 W 1013,0 16 0,0
01.04.2020 15:00:00 8,7 3,1 - 41 22 59 32 W 1013,3 15 0,0
01.04.2020 14:00:00 8,6 5,8 - 41 22 63 34 W 1013,5 16 0,2
01.04.2020 13:00:00 8,5 7,4 - 37 20 55 30 W 1013,4 40 0,0
01.04.2020 12:00:00 7,4 5,8 - 42 23 59 32 WZW 1014,0 9 0,2
01.04.2020 11:00:00 6,9 4,9 - 41 22 59 32 WZW 1014,7 14 0,0
01.04.2020 10:00:00 6,8 3,9 5,7 39 21 54 29 W 1015,4 21 0,0
01.04.2020 09:00:00 6,4 3,6 - 31 17 - - W 1016,4 26 0,0
01.04.2020 08:00:00 5,5 3,6 - 28 15 - - W 1017,0 25 0,0
01.04.2020 07:00:00 4,8 3,1 - 21 11 - - W 1018,0 26 0,0
01.04.2020 06:00:00 5,1 2,9 - 26 14 - - WZW 1018,9 30 0,0
01.04.2020 05:00:00 5,3 3,0 - 28 15 - - WZW 1019,6 28 0,0
01.04.2020 04:00:00 5,1 3,3 - 22 12 - - WZW 1020,9 11 0,2
01.04.2020 03:00:00 5,1 3,2 - 21 11 - - WZW 1021,9 40 0,0
01.04.2020 02:00:00 5,1 3,3 - 24 13 - - WZW 1023,0 35 0,0
01.04.2020 01:00:00 5,1 3,2 - 22 12 - - WZW 1024,0 30 0,0
01.04.2020 00:00:00 5,0 3,6 - 18 10 - - WZW 1025,1 40 0,0
31.03.2020 23:00:00 5,1 4,0 - 21 11 - - W 1026,2 30 0,2
31.03.2020 22:00:00 5,7 3,8 - 16 9 - - W 1026,9 18 0,0
31.03.2020 21:00:00 5,9 4,4 - 18 10 48 26 W 1027,6 17 0,2
31.03.2020 20:00:00 5,8 4,2 - 24 13 - - W 1028,1 12 0,0
31.03.2020 19:00:00 7,4 4,5 - 26 14 - - W 1028,3 15 0,0
31.03.2020 18:00:00 8,1 4,7 - 29 16 - - W 1028,6 14 0,0
31.03.2020 17:00:00 8,9 5,2 - 34 18 52 28 W 1029,3 15 -
31.03.2020 16:00:00 8,3 4,3 - 35 19 54 29 WNW 1029,8 24 0,0
31.03.2020 15:00:00 8,7 4,0 - 41 22 61 33 W 1030,1 20 0,0
31.03.2020 14:00:00 8,6 3,6 - 44 24 63 34 W 1030,5 30 0,0
31.03.2020 13:00:00 8,9 4,3 - 41 22 57 31 W 1031,1 25 0,0
31.03.2020 12:00:00 8,2 4,7 - 39 21 59 32 W 1031,5 19 0,0
31.03.2020 11:00:00 7,8 4,9 - 39 21 54 29 W 1032,0 16 0,0
31.03.2020 10:00:00 7,2 5,1 5,5 28 15 - - W 1032,7 30 0,0
31.03.2020 09:00:00 6,2 5,1 - 24 13 - - W 1032,8 15 0,0
31.03.2020 08:00:00 5,0 4,3 - 21 11 - - W 1033,6 40 0,2
31.03.2020 07:00:00 4,8 4,2 - 22 12 - - W 1033,7 10 0,4
31.03.2020 06:00:00 4,6 3,9 - 15 8 - - W 1033,9 7 0,0
31.03.2020 05:00:00 4,3 3,7 - 16 9 - - W 1034,1 30 0,0
31.03.2020 04:00:00 4,3 3,6 - 18 10 - - W 1034,5 30 0,2
31.03.2020 03:00:00 4,5 3,9 - 16 9 - - W 1034,8 30 0,0
31.03.2020 02:00:00 4,5 3,9 - 15 8 - - WZW 1035,4 20 0,0
31.03.2020 01:00:00 4,6 3,9 - 18 10 - - W 1035,8 24 0,0
31.03.2020 00:00:00 4,4 3,7 - 16 9 - - WZW 1036,3 19 0,0
30.03.2020 23:00:00 3,6 2,9 - 16 9 - - W 1036,6 18 0,0
30.03.2020 22:00:00 3,9 3,1 - 11 6 - - W 1037,1 15 0,2
30.03.2020 21:00:00 5,3 4,3 - 18 10 - - NW 1037,2 4,2 0,2
30.03.2020 20:00:00 5,6 3,9 - 22 12 - - WNW 1037,1 6 0,2
30.03.2020 19:00:00 6,2 4,5 - 16 9 - - WNW 1037,1 12 0,0
30.03.2020 18:00:00 6,9 5,4 - 26 14 - - WNW 1037,3 12 0,0
30.03.2020 17:00:00 6,8 5,1 - 26 14 - - NW 1037,4 13 0,0
30.03.2020 16:00:00 7,3 5,0 - 24 13 - - NW 1037,5 17 0,0
30.03.2020 15:00:00 9,5 4,2 - 28 15 - - NW 1037,7 21 0,0
30.03.2020 14:00:00 7,5 5,5 - 24 13 - - NW 1038,0 8 0,0
30.03.2020 13:00:00 8,4 4,9 - 28 15 - - NW 1038,1 35 0,2
30.03.2020 12:00:00 8,4 4,9 - 28 15 - - NW 1038,5 35 0,0
30.03.2020 11:00:00 8,0 5,6 - 28 15 - - NW 1038,6 20 0,0
30.03.2020 10:00:00 7,1 5,6 5,2 26 14 - - WNW 1038,9 21 0,0
30.03.2020 09:00:00 6,8 6,2 - 18 10 - - WNW 1039,1 10 0,0
30.03.2020 08:00:00 3,6 3,2 - 18 10 - - W 1039,0 8 0,0
30.03.2020 07:00:00 2,5 2,0 - 15 8 - - W 1039,1 8 0,0
30.03.2020 06:00:00 2,7 2,1 - 16 9 - - W 1039,2 9 0,0
30.03.2020 05:00:00 3,4 2,5 - 16 9 - - WNW 1039,4 10 0,0
30.03.2020 04:00:00 4,4 3,4 - 16 9 - - WNW 1039,6 10 0,0
30.03.2020 03:00:00 5,0 3,9 - 21 11 - - NW 1039,8 10 0,0
30.03.2020 02:00:00 5,9 4,3 - 21 11 - - NW 1040,3 10 0,0
30.03.2020 01:00:00 5,6 4,2 - 21 11 - - WNW 1040,6 10 0,0
30.03.2020 00:00:00 6,1 4,7 - 22 12 - - WNW 1040,9 11 0,0
29.03.2020 23:00:00 6,3 5,0 - 22 12 - - WNW 1041,2 11 0,0
29.03.2020 22:00:00 6,2 4,9 - 24 13 - - WNW 1041,5 12 0,0
29.03.2020 21:00:00 6,1 4,4 - 26 14 - - WNW 1041,7 14 0,0
29.03.2020 20:00:00 6,0 4,7 - 22 12 - - NW 1042,1 13 0,0
29.03.2020 19:00:00 6,3 4,8 - 28 15 48 26 WNW 1042,3 14 0,2
29.03.2020 18:00:00 6,8 4,3 - 35 19 57 31 WNW 1042,5 22 0,0
29.03.2020 17:00:00 6,6 4,2 - 37 20 54 29 WNW 1043,0 21 0,0
29.03.2020 16:00:00 6,9 3,0 - 42 23 55 30 WNW 1043,5 12 0,0
29.03.2020 15:00:00 6,5 2,7 - 42 23 61 33 WNW 1044,2 9 0,0
29.03.2020 14:00:00 7,3 2,3 - 41 22 54 29 WNW 1044,7 23 0,0
29.03.2020 13:00:00 6,7 2,2 - 35 19 52 28 W 1045,2 35 0,0
29.03.2020 12:00:00 5,7 -0,4 - 26 14 - - W 1045,9 30 0,0
29.03.2020 11:00:00 5,3 -1,2 - 24 13 - - W 1046,5 30 0,0
29.03.2020 10:00:00 3,8 -1,3 5,2 16 9 - - WZW 1047,3 35 0,0
29.03.2020 09:00:00 2,2 -2,2 - 8 4 - - ZW 1047,7 45 0,0
29.03.2020 08:00:00 0,4 -4,1 - 5 3 - - WZW 1047,7 45 0,0
29.03.2020 07:00:00 -0,1 -4,8 - 11 6 - - WZW 1047,5 45 0,0
29.03.2020 06:00:00 2,4 -4,8 - 15 8 - - NNW 1047,7 40 0,0
29.03.2020 05:00:00 2,6 -6,5 - 24 13 - - NNW 1048,2 50 0,0
29.03.2020 04:00:00 2,4 -5,1 - 22 12 - - NNW 1048,3 40 0,0
29.03.2020 03:00:00 2,4 -5,6 - 24 13 - - NNW 1048,5 50 0,0
29.03.2020 02:00:00 2,3 -5,5 - 29 16 48 26 N 1048,6 50 0,0
29.03.2020 01:00:00 2,6 -5,4 - 21 11 - - NW 1048,0 50 0,0
29.03.2020 00:00:00 2,7 -4,2 - 28 15 - - NNW 1047,9 45 0,0
28.03.2020 23:00:00 2,8 -5,7 - 29 16 - - N 1047,5 50 0,0
28.03.2020 22:00:00 2,4 -7,7 - 35 19 52 28 N 1047,3 45 0,0
28.03.2020 21:00:00 2,9 -5,8 - 34 18 - - N 1046,9 50 0,0
28.03.2020 20:00:00 2,8 -4,9 - 28 15 46 25 NNW 1046,2 45 0,0
28.03.2020 19:00:00 3,3 -3,7 - 34 18 50 27 N 1045,5 35 0,0
28.03.2020 18:00:00 4,4 -2,9 - 35 19 48 26 N 1044,7 35 0,0
28.03.2020 17:00:00 4,8 -3,1 - 37 20 50 27 N 1044,5 19 0,0
28.03.2020 16:00:00 4,6 -3,1 - 39 21 52 28 N 1044,1 23 0,0
28.03.2020 15:00:00 4,5 0,2 - 31 17 54 29 N 1043,8 17 0,0
28.03.2020 14:00:00 5,2 1,0 - 41 22 55 30 N 1043,4 15 0,0
28.03.2020 13:00:00 5,9 -1,3 - 39 21 55 30 N 1042,7 26 0,0
28.03.2020 12:00:00 5,7 -2,2 - 37 20 50 27 N 1041,6 30 0,0
28.03.2020 11:00:00 5,2 -0,6 - 41 22 54 29 N 1040,9 29 0,0
28.03.2020 10:00:00 4,1 -1,8 5,7 39 21 52 28 N 1040,0 45 0,0
28.03.2020 09:00:00 3,0 0,7 - 37 20 50 27 NNW 1039,4 7 0,0
28.03.2020 08:00:00 3,9 2,1 - 24 13 48 26 NNW 1038,3 22 0,0
28.03.2020 07:00:00 3,1 1,1 - 21 11 52 28 NW 1037,6 21 0,4
28.03.2020 06:00:00 4,0 2,0 - 24 13 - - NW 1037,0 22 0,0
28.03.2020 05:00:00 4,4 2,2 - 18 10 - - NNW 1036,5 20 0,0
28.03.2020 04:00:00 4,6 2,5 - 21 11 - - NW 1036,6 19 0,0
28.03.2020 03:00:00 4,4 2,5 - 13 7 - - NW 1036,3 18 0,0
28.03.2020 02:00:00 5,2 3,6 - 21 11 - - NW 1035,9 15 0,0
28.03.2020 01:00:00 4,8 3,7 - 11 6 - - WNW 1035,5 23 0,2
28.03.2020 00:00:00 5,3 4,8 - 16 9 - - WNW 1035,1 6 0,2
27.03.2020 23:00:00 4,6 3,6 - 16 9 - - W 1034,7 23 0,0
27.03.2020 22:00:00 3,5 2,0 - 15 8 - - W 1034,5 27 0,0
27.03.2020 21:00:00 4,3 2,6 - 16 9 - - W 1034,1 29 0,0
27.03.2020 20:00:00 4,4 2,3 - 13 7 - - WNW 1033,7 30 0,0
27.03.2020 19:00:00 7,2 2,9 - 16 9 - - WNW 1033,2 30 0,0
27.03.2020 18:00:00 8,7 2,4 - 21 11 - - NW 1032,8 35 0,0
27.03.2020 17:00:00 8,2 2,8 - 21 11 - - WNW 1032,6 23 0,0
27.03.2020 16:00:00 8,8 3,9 - 22 12 - - NW 1032,7 50 0,0
27.03.2020 15:00:00 10,2 1,9 - 22 12 - - NW 1032,3 25 0,0
27.03.2020 14:00:00 9,5 2,1 - 18 10 - - NW 1032,3 35 0,0
27.03.2020 13:00:00 8,7 3,3 - 16 9 - - NW 1032,2 35 0,0
27.03.2020 12:00:00 9,7 3,5 - 16 9 - - NW 1031,9 20 0,0
27.03.2020 11:00:00 8,6 3,8 - 15 8 - - WNW 1031,4 30 0,0
27.03.2020 10:00:00 6,2 3,2 5,7 11 6 - - W 1031,3 30 0,0
27.03.2020 09:00:00 2,7 1,5 - 8 4 - - W 1030,9 25 0,0
27.03.2020 08:00:00 1,3 0,3 - 8 4 - - WZW 1030,2 45 0,0
27.03.2020 07:00:00 1,5 0,9 - 11 6 - - WZW 1029,8 40 0,0
27.03.2020 06:00:00 0,5 -0,3 - 5 3 - - WZW 1029,5 45 0,0
27.03.2020 05:00:00 2,1 1,4 - 5 3 - - WZW 1029,5 35 0,0
27.03.2020 04:00:00 1,5 0,6 - 8 4 - - W 1029,4 45 0,0
27.03.2020 03:00:00 1,4 0,7 - 9 5 - - W 1029,5 35 0,0
27.03.2020 02:00:00 1,8 1,0 - 8 4 - - W 1029,2 18 0,0
27.03.2020 01:00:00 4,3 3,1 - 5 3 - - ZZW 1028,9 45 0,0
27.03.2020 00:00:00 4,3 3,1 - 8 4 - - Z 1029,0 45 0,0
26.03.2020 23:00:00 4,1 3,0 - 5 3 - - ZZW 1029,1 45 0,0
26.03.2020 22:00:00 4,1 2,1 - 5 3 - - ZZW 1029,1 45 0,0
26.03.2020 21:00:00 6,1 3,3 - 4 2 - - Z 1029,2 45 0,0
26.03.2020 20:00:00 6,7 3,1 - 8 4 - - ZO 1028,8 45 0,0
26.03.2020 19:00:00 - - - - - - - - - - -

tt = temperatuur
td = dauwpunt
tt -20cm = temperatuur -20cm
ff = windsnelheid
fx = windstoten
dd = windrichting
ppp = luchtdruk
vv = zicht
rr = neerslag

Weerstations in de omgeving